Regional Weather Roundup
Issued by NWS State College, PA

Home | Current Version | Previous Version | Text Only | Print | Product List | Glossary On
Versions: 1 2 3 4 5 6 7 8 9 10 11 12 13 14 15 16 17 18 19 20 21 22 23 24 25 26 27 28 29 30 31 32 33 34 35 36 37 38 39 40 41 42 43 44 45 46 47 48 49 50
000
ASUS41 KCTP 210810
RWRCTP

REGIONAL WEATHER ROUNDUP
NATIONAL WEATHER SERVICE STATE COLLEGE PA
300 AM EST THU NOV 21 2019

Note: "fair" indicates few or no clouds below 12,000 feet with no
significant weather and/or obstructions to visibility.

* = STATION THAT DOES NOT REPORT PRECIPITATION /E.G. RAIN...SNOW...ETC/
    THUNDER OR FOG.

PAZ002>004-007>009-013>016-020>023-029>032-210900-
WESTERN PENNSYLVANIA

CITY           SKY/WX    TMP DP  RH WIND       PRES   REMARKS
ERIE           FAIR      35  29  78 S5        30.23F
MEADVILLE      FAIR      31  27  85 S5        30.22S
FRANKLIN*      FAIR      28  26  92 S5        30.23S
NEW CASTLE     FAIR      26  24  92 CALM      30.25S
BEAVER COUNTY  FAIR      32  29  90 SE3       30.24
BUTLER*        FAIR      27  26  96 CALM      30.24F
PITTSBURGH INT FAIR      28  25  88 CALM      30.23F
PITTSBURGH     FAIR      32  29  88 S6        30.23F FOG
INDIANA*       CLEAR     28  27  93 CALM      30.27F
LATROBE        FAIR      28  27  93 CALM      30.26S FOG
WASHINGTON CO* FAIR      25  24  96 CALM      30.27F FOG
$$

PAZ004>006-010>012-017>019-024>028-033>037-041-042-045-046-049>053-210900-
CENTRAL PENNSYLVANIA

CITY           SKY/WX    TMP DP  RH WIND       PRES   REMARKS
BRADFORD       CLOUDY    27  23  85 CALM      30.19S FOG
DUBOIS         FAIR      28  25  88 CALM      30.20F
CLEARFIELD     FAIR      31  28  89 SW3       30.23R
JOHNSTOWN      FAIR      32  27  81 W3        30.20S
ALTOONA        FAIR      34  26  72 W5        30.23S
STATE COLLEGE  FAIR      32  28  86 SW3       30.22S
WILLIAMSPORT   FAIR      36  28  73 W8        30.23S
SELINSGROVE    FAIR      38  28  67 NW6       30.24R
FT INDIANTOWN  CLOUDY    43  27  52 NW6       30.22R
CAPITAL CITY   FAIR      43  28  55 W8        30.24R
HARRISBURG     FAIR      37  28  70 NW7       30.23R
YORK           FAIR      37  26  64 W6        30.23R
$$

PAZ038>040-043-044-047-048-054-055-060>062-067>071-210900-
EASTERN PENNSYLVANIA

CITY           SKY/WX    TMP DP  RH WIND       PRES   REMARKS
SCRANTON       CLOUDY    42  31  64 N9        30.18R
MOUNT POCONO   CLOUDY    36  31  82 NW18      30.12R
ALLENTOWN      FAIR      44  31  60 N12       30.17R
QUAKERTOWN*    SUNNY     43  32  65 NW9       30.17R
READING        MOCLDY    43  34  70 NW8       30.18S
LANCASTER      CLOUDY    39  28  64 NW8       30.21R
COATESVILLE    PTSUNNY   36  30  80 W8        30.19S
POTTSTOWN      FAIR      40  30  67 NW6       30.18S
BLUE BELL      FAIR      43  34  70 NW5       30.17S
DOYLESTOWN     FAIR      41  32  70 CALM      30.16R
WILLOW GROVE   NOT AVBL
NORTH PHILA    FAIR      43  33  68 N7        30.18R
PHILADELPHIA   FAIR      44  30  57 NW8       30.18R
$$



USA.gov is the U.S. government's official web portal to all federal, state and local government web resources and services.